Time,TemperatureF,DewpointF,PressureIn,WindDirection,WindDirectionDegrees,WindSpeedMPH,WindSpeedGustMPH,Humidity,HourlyPrecipIn,Conditions,Clouds,dailyrainin,SoftwareType,DateUTC
2013-07-16 00:01:00,73.5,72.3,30.29,SSW,200,0.0,0.0,96,0.00,,---,0.00,VWS V14.01,2013-07-16 04:01:00,
2013-07-16 00:06:00,73.4,72.2,30.28,SSW,200,0.0,0.0,96,0.00,,---,0.00,VWS V14.01,2013-07-16 04:06:00,
2013-07-16 00:11:00,73.3,72.1,30.28,SSW,200,0.0,0.0,96,0.00,,---,0.00,VWS V14.01,2013-07-16 04:11:00,
2013-07-16 00:16:00,73.2,72.3,30.28,SSW,200,0.0,0.0,97,0.00,,---,0.00,VWS V14.01,2013-07-16 04:16:00,
2013-07-16 00:21:00,73.3,72.4,30.28,SSW,200,0.0,0.0,97,0.00,,---,0.00,VWS V14.01,2013-07-16 04:21:00,
2013-07-16 00:26:00,73.2,72.3,30.28,SSW,200,0.0,0.0,97,0.00,,---,0.00,VWS V14.01,2013-07-16 04:26:00,
2013-07-16 00:31:00,73.1,72.2,30.28,SSW,200,0.0,0.0,97,0.00,,---,0.00,VWS V14.01,2013-07-16 04:31:00,
2013-07-16 00:36:00,73.0,72.1,30.28,SSW,200,0.0,0.0,97,0.00,,---,0.00,VWS V14.01,2013-07-16 04:36:00,
2013-07-16 00:41:00,73.0,72.1,30.28,SSW,200,0.0,0.0,97,0.00,,---,0.00,VWS V14.01,2013-07-16 04:41:00,
2013-07-16 00:46:00,73.0,72.1,30.28,SSW,200,0.0,0.0,97,0.00,,---,0.00,VWS V14.01,2013-07-16 04:46:00,
2013-07-16 00:51:00,72.9,71.7,30.28,SSW,200,0.0,0.0,96,0.00,,---,0.00,VWS V14.01,2013-07-16 04:51:00,
2013-07-16 00:56:00,72.8,71.9,30.28,SSW,200,0.0,0.0,97,0.00,,---,0.00,VWS V14.01,2013-07-16 04:56:00,
2013-07-16 01:00:00,72.8,71.9,30.28,SSW,200,0.0,0.0,97,0.00,,---,0.00,VWS V14.01,2013-07-16 05:00:00,
2013-07-16 01:05:00,72.7,71.8,30.28,SSW,200,0.0,0.0,97,0.00,,---,0.00,VWS V14.01,2013-07-16 05:05:00,
2013-07-16 01:10:00,72.6,71.7,30.28,SSW,200,0.0,0.0,97,0.00,,---,0.00,VWS V14.01,2013-07-16 05:10:00,
2013-07-16 01:15:00,72.5,71.6,30.28,SSW,200,0.0,0.0,97,0.00,,---,0.00,VWS V14.01,2013-07-16 05:15:00,
2013-07-16 01:20:00,72.4,71.5,30.28,SSW,200,0.0,0.0,97,0.00,,---,0.00,VWS V14.01,2013-07-16 05:20:00,
2013-07-16 01:25:00,72.3,71.4,30.28,SSW,200,0.0,0.0,97,0.00,,---,0.00,VWS V14.01,2013-07-16 05:25:00,
2013-07-16 01:30:00,72.4,71.5,30.28,SSW,200,0.0,0.0,97,0.00,,---,0.00,VWS V14.01,2013-07-16 05:30:00,
2013-07-16 01:35:00,72.4,71.5,30.28,SSW,200,0.0,0.0,97,0.00,,---,0.00,VWS V14.01,2013-07-16 05:35:00,
2013-07-16 01:40:00,72.3,71.4,30.28,SSW,200,0.0,0.0,97,0.00,,---,0.00,VWS V14.01,2013-07-16 05:40:00,
2013-07-16 01:45:00,72.2,71.3,30.28,SSW,200,0.0,0.0,97,0.00,,---,0.00,VWS V14.01,2013-07-16 05:45:00,
2013-07-16 01:50:00,72.2,71.3,30.28,SSW,200,0.0,0.0,97,0.00,,---,0.00,VWS V14.01,2013-07-16 05:50:00,
2013-07-16 01:55:00,72.2,71.3,30.28,SSW,200,0.0,0.0,97,0.00,,---,0.00,VWS V14.01,2013-07-16 05:55:00,
2013-07-16 02:00:00,72.1,71.2,30.28,SSW,200,0.0,0.0,97,0.00,,---,0.00,VWS V14.01,2013-07-16 06:00:00,
2013-07-16 02:05:00,72.1,71.2,30.29,SSW,200,0.0,0.0,97,0.00,,---,0.00,VWS V14.01,2013-07-16 06:05:00,
2013-07-16 02:10:00,72.1,71.2,30.28,SSW,200,0.0,0.0,97,0.00,,---,0.00,VWS V14.01,2013-07-16 06:10:00,
2013-07-16 02:15:00,72.0,71.1,30.28,SSW,200,0.0,0.0,97,0.00,,---,0.00,VWS V14.01,2013-07-16 06:15:00,
2013-07-16 02:20:00,71.9,71.0,30.28,SSW,200,0.0,0.0,97,0.00,,---,0.00,VWS V14.01,2013-07-16 06:20:00,
2013-07-16 02:25:00,71.9,71.0,30.28,SSW,200,0.0,0.0,97,0.00,,---,0.00,VWS V14.01,2013-07-16 06:25:00,
2013-07-16 02:30:00,71.8,70.9,30.28,SSW,200,0.0,0.0,97,0.00,,---,0.00,VWS V14.01,2013-07-16 06:30:00,
2013-07-16 02:35:00,71.7,70.8,30.28,SSW,200,0.0,0.0,97,0.00,,---,0.00,VWS V14.01,2013-07-16 06:35:00,
2013-07-16 02:40:00,71.6,70.7,30.28,SSW,200,0.0,0.0,97,0.00,,---,0.00,VWS V14.01,2013-07-16 06:40:00,
2013-07-16 02:45:00,71.5,70.6,30.28,SSW,200,0.0,0.0,97,0.00,,---,0.00,VWS V14.01,2013-07-16 06:45:00,
2013-07-16 02:50:00,71.4,70.5,30.28,SSW,200,0.0,0.0,97,0.00,,---,0.00,VWS V14.01,2013-07-16 06:50:00,
2013-07-16 02:55:00,71.5,70.6,30.28,SSW,200,0.0,0.0,97,0.00,,---,0.00,VWS V14.01,2013-07-16 06:55:00,
2013-07-16 03:00:00,71.4,70.5,30.28,SSW,200,0.0,0.0,97,0.00,,---,0.00,VWS V14.01,2013-07-16 07:00:00,
2013-07-16 03:05:00,71.3,70.4,30.28,SSW,200,0.0,0.0,97,0.00,,---,0.00,VWS V14.01,2013-07-16 07:05:00,
2013-07-16 03:10:00,71.3,70.4,30.28,SSW,200,0.0,0.0,97,0.00,,---,0.00,VWS V14.01,2013-07-16 07:10:00,
2013-07-16 03:15:00,71.2,70.3,30.28,SSW,200,0.0,0.0,97,0.00,,---,0.00,VWS V14.01,2013-07-16 07:15:00,
2013-07-16 03:20:00,71.3,70.4,30.28,SSW,200,0.0,0.0,97,0.00,,---,0.00,VWS V14.01,2013-07-16 07:20:00,
2013-07-16 03:25:00,71.2,70.3,30.27,SSW,200,0.0,0.0,97,0.00,,---,0.00,VWS V14.01,2013-07-16 07:25:00,
2013-07-16 03:30:00,71.2,70.3,30.28,SSW,200,0.0,0.0,97,0.00,,---,0.00,VWS V14.01,2013-07-16 07:30:00,
2013-07-16 03:35:00,71.1,70.2,30.28,SSW,200,0.0,0.0,97,0.00,,---,0.00,VWS V14.01,2013-07-16 07:35:00,
2013-07-16 03:40:00,71.0,70.1,30.28,SSW,200,0.0,0.0,97,0.00,,---,0.00,VWS V14.01,2013-07-16 07:40:00,
2013-07-16 03:45:00,71.0,70.1,30.28,SSW,200,0.0,0.0,97,0.00,,---,0.00,VWS V14.01,2013-07-16 07:45:00,
2013-07-16 03:50:00,71.0,70.1,30.28,SSW,200,0.0,0.0,97,0.00,,---,0.00,VWS V14.01,2013-07-16 07:50:00,
2013-07-16 03:55:00,71.0,70.1,30.28,SSW,200,0.0,0.0,97,0.00,,---,0.00,VWS V14.01,2013-07-16 07:55:00,
2013-07-16 04:00:00,71.2,70.3,30.28,SSW,200,0.0,0.0,97,0.00,,---,0.00,VWS V14.01,2013-07-16 08:00:00,
2013-07-16 04:05:00,71.3,70.4,30.28,SSW,200,0.0,0.0,97,0.00,,---,0.00,VWS V14.01,2013-07-16 08:05:00,
2013-07-16 04:10:00,71.3,70.4,30.28,SSW,200,0.0,0.0,97,0.00,,---,0.00,VWS V14.01,2013-07-16 08:10:00,
2013-07-16 04:15:00,71.3,70.4,30.28,SSW,200,0.0,0.0,97,0.00,,---,0.00,VWS V14.01,2013-07-16 08:15:00,
2013-07-16 04:20:00,71.4,70.5,30.28,SSW,200,0.0,0.0,97,0.00,,---,0.00,VWS V14.01,2013-07-16 08:20:00,
2013-07-16 04:25:00,71.4,70.5,30.28,SSW,200,0.0,0.0,97,0.00,,---,0.00,VWS V14.01,2013-07-16 08:25:00,
2013-07-16 04:30:00,71.3,70.4,30.27,SSW,200,0.0,0.0,97,0.00,,---,0.00,VWS V14.01,2013-07-16 08:30:00,
2013-07-16 04:35:00,71.3,70.4,30.28,SSW,200,0.0,0.0,97,0.00,,---,0.00,VWS V14.01,2013-07-16 08:35:00,
2013-07-16 04:40:00,71.2,70.3,30.27,SSW,200,0.0,0.0,97,0.00,,---,0.00,VWS V14.01,2013-07-16 08:40:00,
2013-07-16 04:45:00,71.0,70.1,30.27,SSW,200,0.0,0.0,97,0.00,,---,0.00,VWS V14.01,2013-07-16 08:45:00,
2013-07-16 04:50:00,70.9,70.0,30.28,SSW,200,0.0,0.0,97,0.00,,---,0.00,VWS V14.01,2013-07-16 08:50:00,
2013-07-16 04:55:00,70.9,70.0,30.28,SSW,200,0.0,0.0,97,0.00,,---,0.00,VWS V14.01,2013-07-16 08:55:00,
2013-07-16 05:00:00,70.9,70.0,30.28,SSW,200,0.0,0.0,97,0.00,,---,0.00,VWS V14.01,2013-07-16 09:00:00,
2013-07-16 05:05:00,70.8,69.9,30.28,SSW,200,0.0,0.0,97,0.00,,---,0.00,VWS V14.01,2013-07-16 09:05:00,
2013-07-16 05:10:00,70.8,69.9,30.29,SSW,200,0.0,0.0,97,0.00,,---,0.00,VWS V14.01,2013-07-16 09:10:00,
2013-07-16 05:15:00,70.8,69.9,30.29,SSW,200,0.0,0.0,97,0.00,,---,0.00,VWS V14.01,2013-07-16 09:15:00,
2013-07-16 05:20:00,70.7,69.8,30.29,SSW,200,0.0,0.0,97,0.00,,---,0.00,VWS V14.01,2013-07-16 09:20:00,
2013-07-16 05:25:00,70.6,69.7,30.29,SSW,200,0.0,0.0,97,0.00,,---,0.00,VWS V14.01,2013-07-16 09:25:00,
2013-07-16 05:30:00,70.6,69.7,30.29,SSW,200,0.0,0.0,97,0.00,,---,0.00,VWS V14.01,2013-07-16 09:30:00,
2013-07-16 05:35:00,70.5,69.6,30.30,SSW,200,0.0,0.0,97,0.00,,---,0.00,VWS V14.01,2013-07-16 09:35:00,
2013-07-16 05:40:00,70.4,69.5,30.30,SSW,200,0.0,0.0,97,0.00,,---,0.00,VWS V14.01,2013-07-16 09:40:00,
2013-07-16 05:45:00,70.3,69.4,30.30,SSW,200,0.0,0.0,97,0.00,,---,0.00,VWS V14.01,2013-07-16 09:45:00,
2013-07-16 05:50:00,70.2,69.3,30.30,SSW,200,0.0,0.0,97,0.00,,---,0.00,VWS V14.01,2013-07-16 09:50:00,
2013-07-16 05:55:00,70.1,69.2,30.30,SSW,200,0.0,0.0,97,0.00,,---,0.00,VWS V14.01,2013-07-16 09:55:00,
2013-07-16 06:00:00,70.0,69.1,30.30,SSW,200,0.0,0.0,97,0.00,,---,0.00,VWS V14.01,2013-07-16 10:00:00,
2013-07-16 06:05:00,69.9,69.0,30.30,SSW,200,0.0,0.0,97,0.00,,---,0.00,VWS V14.01,2013-07-16 10:05:00,
2013-07-16 06:10:00,69.9,69.0,30.30,SSW,200,0.0,0.0,97,0.00,,---,0.00,VWS V14.01,2013-07-16 10:10:00,
2013-07-16 06:15:00,69.8,68.9,30.31,SSW,200,0.0,0.0,97,0.00,,---,0.00,VWS V14.01,2013-07-16 10:15:00,
2013-07-16 06:20:00,69.7,68.8,30.31,SSW,200,0.0,0.0,97,0.00,,---,0.00,VWS V14.01,2013-07-16 10:20:00,
2013-07-16 06:25:00,69.7,68.8,30.31,SSW,200,0.0,0.0,97,0.00,,---,0.00,VWS V14.01,2013-07-16 10:25:00,
2013-07-16 06:30:00,69.7,68.8,30.31,SSW,200,0.0,0.0,97,0.00,,---,0.00,VWS V14.01,2013-07-16 10:30:00,
2013-07-16 06:35:00,69.6,68.7,30.31,SSW,200,0.0,0.0,97,0.00,,---,0.00,VWS V14.01,2013-07-16 10:35:00,
2013-07-16 06:40:00,69.6,68.7,30.30,SSW,200,0.0,0.0,97,0.00,,---,0.00,VWS V14.01,2013-07-16 10:40:00,
2013-07-16 06:45:00,69.5,68.6,30.30,SSW,200,0.0,0.0,97,0.00,,---,0.00,VWS V14.01,2013-07-16 10:45:00,
2013-07-16 06:50:00,69.5,68.6,30.30,SSW,200,0.0,0.0,97,0.00,,---,0.00,VWS V14.01,2013-07-16 10:50:00,
2013-07-16 06:55:00,69.4,68.5,30.31,SSW,200,0.0,0.0,97,0.00,,---,0.00,VWS V14.01,2013-07-16 10:55:00,
2013-07-16 07:00:00,69.4,68.5,30.30,SSW,200,0.0,0.0,97,0.00,,---,0.00,VWS V14.01,2013-07-16 11:00:00,
2013-07-16 07:05:00,69.5,68.6,30.30,SSW,200,0.0,0.0,97,0.00,,---,0.00,VWS V14.01,2013-07-16 11:05:00,
2013-07-16 07:10:00,69.5,68.6,30.30,SSW,200,0.0,0.0,97,0.00,,---,0.00,VWS V14.01,2013-07-16 11:10:00,
2013-07-16 07:15:00,69.5,68.6,30.31,SSW,200,0.0,1.0,97,0.00,,---,0.00,VWS V14.01,2013-07-16 11:15:00,
2013-07-16 07:20:00,69.5,68.6,30.31,SSW,200,0.0,1.0,97,0.00,,---,0.00,VWS V14.01,2013-07-16 11:20:00,
2013-07-16 07:25:00,69.6,68.7,30.31,SSW,200,0.0,1.0,97,0.00,,---,0.00,VWS V14.01,2013-07-16 11:25:00,
2013-07-16 07:30:00,69.7,68.8,30.31,SSW,200,0.0,1.0,97,0.00,,---,0.00,VWS V14.01,2013-07-16 11:30:00,
2013-07-16 07:35:00,69.8,68.9,30.31,SSW,200,0.0,1.0,97,0.00,,---,0.00,VWS V14.01,2013-07-16 11:35:00,
2013-07-16 07:40:00,70.1,69.2,30.31,SSW,200,0.0,0.0,97,0.00,,---,0.00,VWS V14.01,2013-07-16 11:40:00,
2013-07-16 07:45:00,70.3,69.4,30.31,SSW,200,0.0,0.0,97,0.00,,---,0.00,VWS V14.01,2013-07-16 11:45:00,
2013-07-16 07:50:00,70.7,70.1,30.31,SSW,200,0.0,0.0,98,0.00,,---,0.00,VWS V14.01,2013-07-16 11:50:00,
2013-07-16 07:55:00,71.8,71.2,30.31,SSW,200,0.0,0.0,98,0.00,,---,0.00,VWS V14.01,2013-07-16 11:55:00,
2013-07-16 08:00:00,72.9,72.3,30.31,SSW,200,0.0,1.0,98,0.00,,---,0.00,VWS V14.01,2013-07-16 12:00:00,
2013-07-16 08:05:00,74.0,73.4,30.32,SSW,200,1.0,1.0,98,0.00,,---,0.00,VWS V14.01,2013-07-16 12:05:00,
2013-07-16 08:10:00,74.6,74.0,30.32,SSW,200,0.0,1.0,98,0.00,,---,0.00,VWS V14.01,2013-07-16 12:10:00,
2013-07-16 08:15:00,75.0,74.4,30.32,SSW,200,0.0,1.0,98,0.00,,---,0.00,VWS V14.01,2013-07-16 12:15:00,
2013-07-16 08:20:00,75.4,74.8,30.32,SSW,200,1.0,1.0,98,0.00,,---,0.00,VWS V14.01,2013-07-16 12:20:00,
2013-07-16 08:25:00,75.6,74.7,30.32,SSW,200,1.0,1.0,97,0.00,,---,0.00,VWS V14.01,2013-07-16 12:25:00,
2013-07-16 08:30:00,76.1,74.9,30.32,SSW,200,0.0,2.0,96,0.00,,---,0.00,VWS V14.01,2013-07-16 12:30:00,
2013-07-16 08:35:00,76.9,75.4,30.32,SSW,200,0.0,2.0,95,0.00,,---,0.00,VWS V14.01,2013-07-16 12:35:00,
2013-07-16 08:40:00,77.3,75.4,30.32,SSW,200,0.0,2.0,94,0.00,,---,0.00,VWS V14.01,2013-07-16 12:40:00,
2013-07-16 08:45:00,78.1,75.9,30.32,SSW,200,1.0,2.0,93,0.00,,---,0.00,VWS V14.01,2013-07-16 12:45:00,
2013-07-16 08:50:00,79.1,76.6,30.32,SSW,200,1.0,2.0,92,0.00,,---,0.00,VWS V14.01,2013-07-16 12:50:00,
2013-07-16 08:55:00,79.8,76.3,30.32,SSW,200,1.0,2.0,89,0.00,,---,0.00,VWS V14.01,2013-07-16 12:55:00,
2013-07-16 09:00:00,79.6,75.7,30.32,SSW,200,0.0,2.0,88,0.00,,---,0.00,VWS V14.01,2013-07-16 13:00:00,
2013-07-16 09:05:00,79.3,76.1,30.32,SSW,200,0.0,2.0,90,0.00,,---,0.00,VWS V14.01,2013-07-16 13:05:00,
2013-07-16 09:10:00,79.4,75.9,30.33,SSW,201,0.0,0.0,89,0.00,,---,0.00,VWS V14.01,2013-07-16 13:10:00,
2013-07-16 09:15:00,79.7,76.5,30.33,SSW,207,0.0,2.0,90,0.00,,---,0.00,VWS V14.01,2013-07-16 13:15:00,
2013-07-16 09:20:00,80.7,77.2,30.33,SSW,208,0.0,2.0,89,0.00,,---,0.00,VWS V14.01,2013-07-16 13:20:00,
2013-07-16 09:25:00,81.4,76.5,30.33,SSW,208,0.0,2.0,85,0.00,,---,0.00,VWS V14.01,2013-07-16 13:25:00,
2013-07-16 09:30:00,82.3,76.6,30.33,SSW,208,0.0,2.0,83,0.00,,---,0.00,VWS V14.01,2013-07-16 13:30:00,
2013-07-16 09:35:00,83.3,78.0,30.33,SSW,208,0.0,2.0,84,0.00,,---,0.00,VWS V14.01,2013-07-16 13:35:00,
2013-07-16 09:40:00,84.2,78.5,30.32,SSW,208,0.0,2.0,83,0.00,,---,0.00,VWS V14.01,2013-07-16 13:40:00,
2013-07-16 09:45:00,85.1,79.0,30.32,SW,236,1.0,2.0,82,0.00,,---,0.00,VWS V14.01,2013-07-16 13:45:00,
2013-07-16 09:49:00,86.0,78.7,30.32,WSW,254,0.0,2.0,79,0.00,,---,0.00,VWS V14.01,2013-07-16 13:49:00,
2013-07-16 09:54:00,86.6,79.3,30.32,WSW,250,0.0,3.0,79,0.00,,---,0.00,VWS V14.01,2013-07-16 13:54:00,
2013-07-16 09:59:00,86.7,79.0,30.32,WSW,241,2.0,3.0,78,0.00,,---,0.00,VWS V14.01,2013-07-16 13:59:00,
2013-07-16 10:04:00,86.6,78.9,30.32,WSW,244,2.0,3.0,78,0.00,,---,0.00,VWS V14.01,2013-07-16 14:04:00,
2013-07-16 10:09:00,86.6,78.1,30.32,WSW,248,1.0,2.0,76,0.00,,---,0.00,VWS V14.01,2013-07-16 14:09:00,
2013-07-16 10:14:00,86.7,77.8,30.32,WSW,248,0.0,2.0,75,0.00,,---,0.00,VWS V14.01,2013-07-16 14:14:00,
2013-07-16 10:19:00,86.9,78.0,30.32,West,269,1.0,2.0,75,0.00,,---,0.00,VWS V14.01,2013-07-16 14:19:00,
2013-07-16 10:24:00,87.1,77.8,30.32,North,355,1.0,2.0,74,0.00,,---,0.00,VWS V14.01,2013-07-16 14:24:00,
2013-07-16 10:29:00,87.5,77.8,30.32,WSW,252,1.0,3.0,73,0.00,,---,0.00,VWS V14.01,2013-07-16 14:29:00,
2013-07-16 10:34:00,87.4,77.3,30.32,WSW,257,1.0,3.0,72,0.00,,---,0.00,VWS V14.01,2013-07-16 14:34:00,
2013-07-16 10:39:00,87.4,78.1,30.32,WNW,286,3.0,3.0,74,0.00,,---,0.00,VWS V14.01,2013-07-16 14:39:00,
2013-07-16 10:44:00,87.3,76.8,30.32,SW,230,0.0,3.0,71,0.00,,---,0.00,VWS V14.01,2013-07-16 14:44:00,
2013-07-16 10:49:00,87.1,77.8,30.32,West,274,0.0,3.0,74,0.00,,---,0.00,VWS V14.01,2013-07-16 14:49:00,
2013-07-16 10:54:00,87.3,77.2,30.32,West,270,0.0,3.0,72,0.00,,---,0.00,VWS V14.01,2013-07-16 14:54:00,
2013-07-16 10:59:00,87.5,75.6,30.32,West,269,0.0,3.0,68,0.00,,---,0.00,VWS V14.01,2013-07-16 14:59:00,
2013-07-16 11:04:00,87.9,76.9,30.32,WNW,291,0.0,3.0,70,0.00,,---,0.00,VWS V14.01,2013-07-16 15:04:00,
2013-07-16 11:09:00,88.3,76.8,30.32,SW,235,1.0,2.0,69,0.00,,---,0.00,VWS V14.01,2013-07-16 15:09:00,
2013-07-16 11:14:00,88.3,76.4,30.32,WSW,240,0.0,2.0,68,0.00,,---,0.00,VWS V14.01,2013-07-16 15:14:00,
2013-07-16 11:19:00,88.2,76.8,30.32,WSW,245,1.0,2.0,69,0.00,,---,0.00,VWS V14.01,2013-07-16 15:19:00,
2013-07-16 11:24:00,88.2,76.3,30.32,North,5,1.0,3.0,68,0.00,,---,0.00,VWS V14.01,2013-07-16 15:24:00,
2013-07-16 11:29:00,88.6,77.1,30.32,WSW,257,2.0,3.0,69,0.00,,---,0.00,VWS V14.01,2013-07-16 15:29:00,
2013-07-16 11:34:00,88.3,77.3,30.32,NW,323,0.0,3.0,70,0.00,,---,0.00,VWS V14.01,2013-07-16 15:34:00,
2013-07-16 11:39:00,88.3,77.7,30.32,WNW,284,1.0,2.0,71,0.00,,---,0.00,VWS V14.01,2013-07-16 15:39:00,
2013-07-16 11:44:00,88.9,76.5,30.32,West,275,1.0,2.0,67,0.00,,---,0.00,VWS V14.01,2013-07-16 15:44:00,
2013-07-16 11:49:00,89.3,76.9,30.32,West,261,2.0,6.0,67,0.00,,---,0.00,VWS V14.01,2013-07-16 15:49:00,
2013-07-16 11:54:00,89.3,77.4,30.32,West,277,1.0,6.0,68,0.00,,---,0.00,VWS V14.01,2013-07-16 15:54:00,
2013-07-16 11:59:00,89.7,77.3,30.32,WNW,290,2.0,6.0,67,0.00,,---,0.00,VWS V14.01,2013-07-16 15:59:00,
2013-07-16 12:04:00,90.0,75.2,30.32,NNW,342,0.0,6.0,62,0.00,,---,0.00,VWS V14.01,2013-07-16 16:04:00,
2013-07-16 12:09:00,90.1,77.7,30.32,NW,311,2.0,2.0,67,0.00,,---,0.00,VWS V14.01,2013-07-16 16:09:00,
2013-07-16 12:14:00,90.1,77.7,30.32,West,259,1.0,5.0,67,0.00,,---,0.00,VWS V14.01,2013-07-16 16:14:00,
2013-07-16 12:19:00,89.8,76.9,30.31,WNW,287,2.0,5.0,66,0.00,,---,0.00,VWS V14.01,2013-07-16 16:19:00,
2013-07-16 12:24:00,89.9,76.6,30.31,WSW,258,1.0,5.0,65,0.00,,---,0.00,VWS V14.01,2013-07-16 16:24:00,
2013-07-16 12:29:00,89.8,76.5,30.31,WSW,242,1.0,5.0,65,0.00,,---,0.00,VWS V14.01,2013-07-16 16:29:00,
2013-07-16 12:34:00,89.9,76.1,30.31,West,260,2.0,5.0,64,0.00,,---,0.00,VWS V14.01,2013-07-16 16:34:00,
2013-07-16 12:39:00,89.7,76.4,30.31,NW,306,2.0,3.0,65,0.00,,---,0.00,VWS V14.01,2013-07-16 16:39:00,
2013-07-16 12:44:00,89.8,77.4,30.31,SW,218,0.0,3.0,67,0.00,,---,0.00,VWS V14.01,2013-07-16 16:44:00,
2013-07-16 12:49:00,90.1,78.6,30.31,NNW,331,1.0,3.0,69,0.00,,---,0.00,VWS V14.01,2013-07-16 16:49:00,
2013-07-16 12:54:00,90.8,77.4,30.30,SW,217,1.0,3.0,65,0.00,,---,0.00,VWS V14.01,2013-07-16 16:54:00,
2013-07-16 12:59:00,90.9,76.1,30.30,WNW,285,0.0,3.0,62,0.00,,---,0.00,VWS V14.01,2013-07-16 16:59:00,
2013-07-16 13:04:00,90.8,76.9,30.30,WSW,253,1.0,3.0,64,0.00,,---,0.00,VWS V14.01,2013-07-16 17:04:00,
2013-07-16 13:09:00,90.8,78.3,30.30,WNW,284,1.0,2.0,67,0.00,,---,0.00,VWS V14.01,2013-07-16 17:09:00,
2013-07-16 13:14:00,91.0,77.6,30.30,NW,311,1.0,3.0,65,0.00,,---,0.00,VWS V14.01,2013-07-16 17:14:00,
2013-07-16 13:19:00,91.1,75.8,30.30,NW,321,0.0,3.0,61,0.00,,---,0.00,VWS V14.01,2013-07-16 17:19:00,
2013-07-16 13:24:00,91.1,74.8,30.30,North,5,0.0,3.0,59,0.00,,---,0.00,VWS V14.01,2013-07-16 17:24:00,
2013-07-16 13:29:00,91.3,76.0,30.29,NW,306,2.0,3.0,61,0.00,,---,0.00,VWS V14.01,2013-07-16 17:29:00,
2013-07-16 13:34:00,91.0,74.7,30.30,SW,230,1.0,3.0,59,0.00,,---,0.00,VWS V14.01,2013-07-16 17:34:00,
2013-07-16 13:39:00,90.6,75.8,30.30,WNW,302,2.0,3.0,62,0.00,,---,0.00,VWS V14.01,2013-07-16 17:39:00,
2013-07-16 13:44:00,90.1,77.7,30.29,West,275,0.0,3.0,67,0.00,,---,0.00,VWS V14.01,2013-07-16 17:44:00,
2013-07-16 13:49:00,89.6,77.6,30.29,WSW,249,3.0,3.0,68,0.00,,---,0.00,VWS V14.01,2013-07-16 17:49:00,
2013-07-16 13:54:00,89.8,76.0,30.29,WNW,288,1.0,3.0,64,0.00,,---,0.00,VWS V14.01,2013-07-16 17:54:00,
2013-07-16 13:59:00,90.5,77.6,30.29,SW,236,2.0,5.0,66,0.00,,---,0.00,VWS V14.01,2013-07-16 17:59:00,
2013-07-16 14:04:00,90.9,76.6,30.28,SW,227,1.0,6.0,63,0.00,,---,0.00,VWS V14.01,2013-07-16 18:04:00,
2013-07-16 14:09:00,90.9,78.9,30.28,WNW,287,2.0,2.0,68,0.00,,---,0.00,VWS V14.01,2013-07-16 18:09:00,
2013-07-16 14:14:00,91.1,77.7,30.28,SW,223,2.0,4.0,65,0.00,,---,0.00,VWS V14.01,2013-07-16 18:14:00,
2013-07-16 14:19:00,91.0,75.7,30.28,SSE,168,2.0,4.0,61,0.00,,---,0.00,VWS V14.01,2013-07-16 18:19:00,
2013-07-16 14:24:00,90.4,77.0,30.28,WSW,251,2.0,4.0,65,0.00,,---,0.00,VWS V14.01,2013-07-16 18:24:00,
2013-07-16 14:29:00,90.1,77.2,30.28,SSW,213,2.0,5.0,66,0.00,,---,0.00,VWS V14.01,2013-07-16 18:29:00,
2013-07-16 14:34:00,89.9,76.6,30.28,WNW,296,2.0,7.0,65,0.00,,---,0.00,VWS V14.01,2013-07-16 18:34:00,
2013-07-16 14:39:00,90.2,79.1,30.27,West,265,0.0,6.0,70,0.00,,---,0.00,VWS V14.01,2013-07-16 18:39:00,
2013-07-16 14:44:00,90.6,76.8,30.27,West,265,2.0,6.0,64,0.00,,---,0.00,VWS V14.01,2013-07-16 18:44:00,
2013-07-16 14:49:00,90.9,76.6,30.27,WSW,250,0.0,6.0,63,0.00,,---,0.00,VWS V14.01,2013-07-16 18:49:00,
2013-07-16 14:54:00,91.1,77.7,30.27,South,186,4.0,6.0,65,0.00,,---,0.00,VWS V14.01,2013-07-16 18:54:00,
2013-07-16 14:59:00,90.8,75.5,30.27,SSE,163,0.0,6.0,61,0.00,,---,0.00,VWS V14.01,2013-07-16 18:59:00,
2013-07-16 15:04:00,90.9,75.6,30.27,WSW,252,3.0,6.0,61,0.00,,---,0.00,VWS V14.01,2013-07-16 19:04:00,
2013-07-16 15:09:00,90.6,77.2,30.27,WSW,256,1.0,2.0,65,0.00,,---,0.00,VWS V14.01,2013-07-16 19:09:00,
2013-07-16 15:14:00,90.4,76.1,30.26,West,272,1.0,3.0,63,0.00,,---,0.00,VWS V14.01,2013-07-16 19:14:00,
2013-07-16 15:19:00,90.1,75.8,30.27,West,279,0.0,3.0,63,0.00,,---,0.00,VWS V14.01,2013-07-16 19:19:00,
2013-07-16 15:24:00,89.7,76.8,30.26,WSW,248,3.0,4.0,66,0.00,,---,0.00,VWS V14.01,2013-07-16 19:24:00,
2013-07-16 15:29:00,89.8,77.4,30.26,WSW,245,2.0,4.0,67,0.00,,---,0.00,VWS V14.01,2013-07-16 19:29:00,
2013-07-16 15:34:00,90.1,76.3,30.26,WSW,238,1.0,5.0,64,0.00,,---,0.00,VWS V14.01,2013-07-16 19:34:00,
2013-07-16 15:39:00,90.7,77.8,30.25,WNW,303,0.0,2.0,66,0.00,,---,0.00,VWS V14.01,2013-07-16 19:39:00,
2013-07-16 15:44:00,91.0,79.9,30.26,SSW,207,2.0,5.0,70,0.00,,---,0.00,VWS V14.01,2013-07-16 19:44:00,
2013-07-16 15:49:00,91.0,75.7,30.25,SW,222,2.0,6.0,61,0.00,,---,0.00,VWS V14.01,2013-07-16 19:49:00,
2013-07-16 15:54:00,90.9,78.0,30.25,South,190,1.0,6.0,66,0.00,,---,0.00,VWS V14.01,2013-07-16 19:54:00,
2013-07-16 15:59:00,90.9,75.6,30.25,SSE,159,0.0,6.0,61,0.00,,---,0.00,VWS V14.01,2013-07-16 19:59:00,
2013-07-16 16:04:00,91.0,77.1,30.25,West,269,2.0,6.0,64,0.00,,---,0.00,VWS V14.01,2013-07-16 20:04:00,
2013-07-16 16:09:00,91.3,77.4,30.25,WSW,242,3.0,5.0,64,0.00,,---,0.00,VWS V14.01,2013-07-16 20:09:00,
2013-07-16 16:14:00,91.7,77.8,30.25,West,268,0.0,5.0,64,0.00,,---,0.00,VWS V14.01,2013-07-16 20:14:00,
2013-07-16 16:19:00,91.8,77.9,30.24,WSW,252,1.0,5.0,64,0.00,,---,0.00,VWS V14.01,2013-07-16 20:19:00,
2013-07-16 16:23:00,91.8,76.9,30.24,West,267,0.0,6.0,62,0.00,,---,0.00,VWS V14.01,2013-07-16 20:23:00,
2013-07-16 16:28:00,92.0,78.1,30.24,WNW,291,1.0,6.0,64,0.00,,---,0.00,VWS V14.01,2013-07-16 20:28:00,
2013-07-16 16:33:00,91.8,75.9,30.24,SSW,205,2.0,6.0,60,0.00,,---,0.00,VWS V14.01,2013-07-16 20:33:00,
2013-07-16 16:38:00,91.7,76.8,30.24,SW,236,0.0,4.0,62,0.00,,---,0.00,VWS V14.01,2013-07-16 20:38:00,
2013-07-16 16:43:00,91.6,77.2,30.24,West,265,3.0,6.0,63,0.00,,---,0.00,VWS V14.01,2013-07-16 20:43:00,
2013-07-16 16:48:00,91.8,74.9,30.24,WSW,248,1.0,7.0,58,0.00,,---,0.00,VWS V14.01,2013-07-16 20:48:00,
2013-07-16 16:53:00,91.7,75.8,30.24,SW,228,1.0,7.0,60,0.00,,---,0.00,VWS V14.01,2013-07-16 20:53:00,
2013-07-16 16:58:00,91.6,75.8,30.24,South,190,0.0,7.0,60,0.00,,---,0.00,VWS V14.01,2013-07-16 20:58:00,
2013-07-16 17:03:00,91.1,75.8,30.24,South,178,1.0,7.0,61,0.00,,---,0.00,VWS V14.01,2013-07-16 21:03:00,
2013-07-16 17:08:00,90.4,74.6,30.24,SW,234,0.0,5.0,60,0.00,,---,0.00,VWS V14.01,2013-07-16 21:08:00,
2013-07-16 17:13:00,89.8,76.0,30.24,WSW,244,0.0,5.0,64,0.00,,---,0.00,VWS V14.01,2013-07-16 21:13:00,
2013-07-16 17:18:00,89.3,76.5,30.24,SW,231,0.0,5.0,66,0.00,,---,0.00,VWS V14.01,2013-07-16 21:18:00,
2013-07-16 17:23:00,89.0,75.7,30.24,ENE,63,1.0,6.0,65,0.00,,---,0.00,VWS V14.01,2013-07-16 21:23:00,
2013-07-16 17:28:00,88.4,75.6,30.24,SSE,163,3.0,6.0,66,0.00,,---,0.00,VWS V14.01,2013-07-16 21:28:00,
2013-07-16 17:33:00,88.0,76.6,30.24,WSW,245,2.0,6.0,69,0.00,,---,0.00,VWS V14.01,2013-07-16 21:33:00,
2013-07-16 17:38:00,87.8,75.5,30.24,West,264,2.0,4.0,67,0.00,,---,0.00,VWS V14.01,2013-07-16 21:38:00,
2013-07-16 17:43:00,87.7,76.3,30.24,WSW,246,0.0,5.0,69,0.00,,---,0.00,VWS V14.01,2013-07-16 21:43:00,
2013-07-16 17:48:00,87.5,77.4,30.24,South,187,1.0,5.0,72,0.00,,---,0.00,VWS V14.01,2013-07-16 21:48:00,
2013-07-16 17:53:00,87.4,74.7,30.24,SSW,213,1.0,5.0,66,0.00,,---,0.00,VWS V14.01,2013-07-16 21:53:00,
2013-07-16 17:58:00,87.3,75.0,30.24,SSE,158,0.0,5.0,67,0.00,,---,0.00,VWS V14.01,2013-07-16 21:58:00,
2013-07-16 18:03:00,87.3,75.4,30.24,WSW,248,3.0,5.0,68,0.00,,---,0.00,VWS V14.01,2013-07-16 22:03:00,
2013-07-16 18:08:00,87.3,75.0,30.24,WSW,250,4.0,5.0,67,0.00,,---,0.00,VWS V14.01,2013-07-16 22:08:00,
2013-07-16 18:13:00,87.2,75.4,30.24,SW,232,0.0,5.0,68,0.00,,---,0.00,VWS V14.01,2013-07-16 22:13:00,
2013-07-16 18:18:00,87.0,77.3,30.24,WSW,241,0.0,5.0,73,0.00,,---,0.00,VWS V14.01,2013-07-16 22:18:00,
2013-07-16 18:23:00,86.5,76.4,30.24,WSW,241,0.0,5.0,72,0.00,,---,0.00,VWS V14.01,2013-07-16 22:23:00,
2013-07-16 18:28:00,86.0,77.6,30.24,WSW,248,1.0,5.0,76,0.00,,---,0.00,VWS V14.01,2013-07-16 22:28:00,
2013-07-16 18:33:00,85.7,76.5,30.24,West,273,0.0,5.0,74,0.00,,---,0.00,VWS V14.01,2013-07-16 22:33:00,
2013-07-16 18:38:00,85.3,77.7,30.24,West,276,0.0,1.0,78,0.00,,---,0.00,VWS V14.01,2013-07-16 22:38:00,
2013-07-16 18:43:00,84.8,77.2,30.24,West,276,0.0,1.0,78,0.00,,---,0.00,VWS V14.01,2013-07-16 22:43:00,
2013-07-16 18:48:00,84.3,77.1,30.23,West,276,0.0,1.0,79,0.00,,---,0.00,VWS V14.01,2013-07-16 22:48:00,
2013-07-16 18:53:00,84.0,76.4,30.23,WSW,256,2.0,3.0,78,0.00,,---,0.00,VWS V14.01,2013-07-16 22:53:00,
2013-07-16 18:58:00,83.9,76.7,30.23,West,279,0.0,3.0,79,0.00,,---,0.00,VWS V14.01,2013-07-16 22:58:00,
2013-07-16 19:03:00,83.8,77.0,30.23,West,279,0.0,3.0,80,0.00,,---,0.00,VWS V14.01,2013-07-16 23:03:00,
2013-07-16 19:08:00,83.9,77.1,30.23,NW,307,0.0,0.0,80,0.00,,---,0.00,VWS V14.01,2013-07-16 23:08:00,
2013-07-16 19:13:00,83.7,76.1,30.23,NW,307,1.0,1.0,78,0.00,,---,0.00,VWS V14.01,2013-07-16 23:13:00,
2013-07-16 19:18:00,83.3,76.5,30.23,NW,307,1.0,1.0,80,0.00,,---,0.00,VWS V14.01,2013-07-16 23:18:00,
2013-07-16 19:23:00,82.9,76.5,30.23,NW,307,0.0,1.0,81,0.00,,---,0.00,VWS V14.01,2013-07-16 23:23:00,
2013-07-16 19:28:00,82.6,76.6,30.23,NW,307,0.0,1.0,82,0.00,,---,0.00,VWS V14.01,2013-07-16 23:28:00,
2013-07-16 19:33:00,82.4,76.7,30.23,NW,307,1.0,1.0,83,0.00,,---,0.00,VWS V14.01,2013-07-16 23:33:00,
2013-07-16 19:38:00,82.3,77.3,30.23,NW,307,0.0,0.0,85,0.00,,---,0.00,VWS V14.01,2013-07-16 23:38:00,
2013-07-16 19:43:00,82.2,76.9,30.24,NW,307,0.0,1.0,84,0.00,,---,0.00,VWS V14.01,2013-07-16 23:43:00,
2013-07-16 19:48:00,82.1,77.5,30.24,NW,307,0.0,1.0,86,0.00,,---,0.00,VWS V14.01,2013-07-16 23:48:00,
2013-07-16 19:53:00,82.2,77.9,30.24,NW,307,0.0,1.0,87,0.00,,---,0.00,VWS V14.01,2013-07-16 23:53:00,
2013-07-16 19:58:00,82.1,77.2,30.24,NW,307,0.0,1.0,85,0.00,,---,0.00,VWS V14.01,2013-07-16 23:58:00,
2013-07-16 20:03:00,82.2,77.9,30.24,NW,307,0.0,1.0,87,0.00,,---,0.00,VWS V14.01,2013-07-17 00:03:00,
2013-07-16 20:08:00,82.2,77.6,30.24,NW,307,0.0,0.0,86,0.00,,---,0.00,VWS V14.01,2013-07-17 00:08:00,
2013-07-16 20:13:00,82.3,78.1,30.24,NW,307,0.0,0.0,87,0.00,,---,0.00,VWS V14.01,2013-07-17 00:13:00,
2013-07-16 20:18:00,82.2,78.3,30.24,NW,307,0.0,0.0,88,0.00,,---,0.00,VWS V14.01,2013-07-17 00:18:00,
2013-07-16 20:23:00,82.0,78.1,30.24,NW,307,0.0,0.0,88,0.00,,---,0.00,VWS V14.01,2013-07-17 00:23:00,
2013-07-16 20:28:00,81.9,78.0,30.24,NW,307,0.0,0.0,88,0.00,,---,0.00,VWS V14.01,2013-07-17 00:28:00,
2013-07-16 20:33:00,81.8,77.6,30.24,NW,307,0.0,0.0,87,0.00,,---,0.00,VWS V14.01,2013-07-17 00:33:00,
2013-07-16 20:38:00,81.6,77.7,30.24,NW,307,0.0,0.0,88,0.00,,---,0.00,VWS V14.01,2013-07-17 00:38:00,
2013-07-16 20:43:00,81.5,77.6,30.24,NW,307,0.0,0.0,88,0.00,,---,0.00,VWS V14.01,2013-07-17 00:43:00,
2013-07-16 20:48:00,81.4,77.5,30.24,NW,307,0.0,0.0,88,0.00,,---,0.00,VWS V14.01,2013-07-17 00:48:00,
2013-07-16 20:53:00,81.2,77.7,30.25,NW,307,0.0,0.0,89,0.00,,---,0.00,VWS V14.01,2013-07-17 00:53:00,
2013-07-16 20:58:00,81.2,77.7,30.25,NW,307,0.0,0.0,89,0.00,,---,0.00,VWS V14.01,2013-07-17 00:58:00,
2013-07-16 21:03:00,81.2,78.0,30.25,NW,307,1.0,1.0,90,0.00,,---,0.00,VWS V14.01,2013-07-17 01:03:00,
2013-07-16 21:08:00,81.0,77.1,30.24,NW,307,0.0,1.0,88,0.00,,---,0.00,VWS V14.01,2013-07-17 01:08:00,
2013-07-16 21:13:00,80.9,77.0,30.25,NW,307,1.0,1.0,88,0.00,,---,0.00,VWS V14.01,2013-07-17 01:13:00,
2013-07-16 21:18:00,80.7,75.8,30.25,SSW,202,2.0,5.0,85,0.00,,---,0.00,VWS V14.01,2013-07-17 01:18:00,
2013-07-16 21:23:00,80.4,75.1,30.25,SSW,198,1.0,5.0,84,0.00,,---,0.00,VWS V14.01,2013-07-17 01:23:00,
2013-07-16 21:28:00,80.2,74.6,30.25,SSW,194,0.0,5.0,83,0.00,,---,0.00,VWS V14.01,2013-07-17 01:28:00,
2013-07-16 21:33:00,80.0,74.4,30.26,SSE,161,1.0,5.0,83,0.00,,---,0.00,VWS V14.01,2013-07-17 01:33:00,
2013-07-16 21:38:00,79.8,73.8,30.26,SSE,161,0.0,1.0,82,0.00,,---,0.00,VWS V14.01,2013-07-17 01:38:00,
2013-07-16 21:43:00,79.6,74.3,30.25,SSE,161,0.0,1.0,84,0.00,,---,0.00,VWS V14.01,2013-07-17 01:43:00,
2013-07-16 21:48:00,79.3,73.7,30.25,SSE,161,0.0,1.0,83,0.00,,---,0.00,VWS V14.01,2013-07-17 01:48:00,
2013-07-16 21:53:00,79.1,74.2,30.25,SSE,161,0.0,1.0,85,0.00,,---,0.00,VWS V14.01,2013-07-17 01:53:00,
2013-07-16 21:58:00,78.8,73.9,30.26,SSE,161,1.0,1.0,85,0.00,,---,0.00,VWS V14.01,2013-07-17 01:58:00,
2013-07-16 22:03:00,78.4,73.5,30.26,SSE,161,0.0,1.0,85,0.00,,---,0.00,VWS V14.01,2013-07-17 02:03:00,
2013-07-16 22:08:00,77.9,73.0,30.26,SSE,161,0.0,0.0,85,0.00,,---,0.00,VWS V14.01,2013-07-17 02:08:00,
2013-07-16 22:13:00,77.5,73.3,30.25,SSE,161,0.0,1.0,87,0.00,,---,0.00,VWS V14.01,2013-07-17 02:13:00,
2013-07-16 22:18:00,77.2,73.4,30.26,SSE,161,0.0,1.0,88,0.00,,---,0.00,VWS V14.01,2013-07-17 02:18:00,
2013-07-16 22:23:00,77.0,73.5,30.26,SSE,161,0.0,1.0,89,0.00,,---,0.00,VWS V14.01,2013-07-17 02:23:00,
2013-07-16 22:28:00,76.7,73.2,30.26,SSE,161,0.0,1.0,89,0.00,,---,0.00,VWS V14.01,2013-07-17 02:28:00,
2013-07-16 22:33:00,76.5,73.0,30.26,SSE,161,0.0,1.0,89,0.00,,---,0.00,VWS V14.01,2013-07-17 02:33:00,
2013-07-16 22:38:00,76.3,72.8,30.26,SSE,161,0.0,0.0,89,0.00,,---,0.00,VWS V14.01,2013-07-17 02:38:00,
2013-07-16 22:43:00,76.1,73.0,30.26,SSE,161,0.0,0.0,90,0.00,,---,0.00,VWS V14.01,2013-07-17 02:43:00,
2013-07-16 22:48:00,76.0,72.9,30.26,SSE,161,0.0,0.0,90,0.00,,---,0.00,VWS V14.01,2013-07-17 02:48:00,
2013-07-16 22:53:00,75.9,72.8,30.27,SSE,161,0.0,0.0,90,0.00,,---,0.00,VWS V14.01,2013-07-17 02:53:00,
2013-07-16 22:58:00,75.8,73.0,30.27,SSE,161,0.0,0.0,91,0.00,,---,0.00,VWS V14.01,2013-07-17 02:58:00,
2013-07-16 23:03:00,75.7,72.9,30.27,SSE,161,0.0,0.0,91,0.00,,---,0.00,VWS V14.01,2013-07-17 03:03:00,
2013-07-16 23:08:00,75.6,72.5,30.27,SSE,161,0.0,0.0,90,0.00,,---,0.00,VWS V14.01,2013-07-17 03:08:00,
2013-07-16 23:12:00,75.5,72.7,30.27,SSE,161,0.0,0.0,91,0.00,,---,0.00,VWS V14.01,2013-07-17 03:12:00,
2013-07-16 23:17:00,75.4,72.6,30.27,SSE,161,0.0,0.0,91,0.00,,---,0.00,VWS V14.01,2013-07-17 03:17:00,
2013-07-16 23:22:00,75.4,72.6,30.27,SSE,161,0.0,0.0,91,0.00,,---,0.00,VWS V14.01,2013-07-17 03:22:00,
2013-07-16 23:27:00,75.3,72.5,30.27,SSE,161,0.0,0.0,91,0.00,,---,0.00,VWS V14.01,2013-07-17 03:27:00,
2013-07-16 23:32:00,75.2,72.7,30.27,SSE,161,0.0,0.0,92,0.00,,---,0.00,VWS V14.01,2013-07-17 03:32:00,
2013-07-16 23:37:00,75.1,72.6,30.27,SSE,161,0.0,0.0,92,0.00,,---,0.00,VWS V14.01,2013-07-17 03:37:00,
2013-07-16 23:42:00,74.9,72.4,30.27,SSE,161,0.0,0.0,92,0.00,,---,0.00,VWS V14.01,2013-07-17 03:42:00,
2013-07-16 23:47:00,74.9,72.4,30.27,SSE,161,0.0,0.0,92,0.00,,---,0.00,VWS V14.01,2013-07-17 03:47:00,
2013-07-16 23:52:00,74.8,72.3,30.27,SSE,161,0.0,0.0,92,0.00,,---,0.00,VWS V14.01,2013-07-17 03:52:00,
2013-07-16 23:57:00,74.7,72.6,30.27,SSE,161,0.0,0.0,93,0.00,,---,0.00,VWS V14.01,2013-07-17 03:57:00,